Location: Columbia, SC
(34.0000°N, 81.0300°W)
Time: 18:31:52
(UTC-04:00)

Tiangong 1 - Visible Passes

Search period start: 25 September 2016 00:00
Search period end: 05 October 2016 00:00
Orbit: 359 x 380 km, 42.8° (Epoch: 25 September)

Date Brightness Start Highest point End Pass type
(mag) Time Alt. Az. Time Alt. Az. Time Alt. Az.
25 Sep 2.5 05:54:38 24° NNW 05:54:51 25° NNW 05:57:27 10° NE visible
26 Sep 3.2 06:25:07 10° NW 06:27:07 16° N 06:29:10 10° NE visible
27 Sep 3.7 05:23:37 16° NNE 05:23:37 16° NNE 05:24:42 10° NE visible
28 Sep 3.3 05:53:59 15° NNW 05:54:34 15° N 05:56:29 10° NE visible
29 Sep 3.3 06:24:40 10° NW 06:26:47 17° N 06:28:55 10° NE visible
30 Sep 3.9 05:22:47 14° NNE 05:22:47 14° NNE 05:23:46 10° NE visible
01 Oct 3.1 05:53:08 18° N 05:54:00 20° NNE 05:56:18 10° ENE visible
02 Oct 2.1 06:23:31 13° NW 06:25:54 39° NNE 06:28:46 10° E visible
03 Oct 3.6 05:22:04 20° NE 05:22:04 20° NE 05:23:33 10° ENE visible
03 Oct 1.1 06:54:34 10° WNW 06:57:32 60° SSW 07:00:32 10° SE visible
04 Oct 1.3 05:52:34 56° N 05:52:46 58° NNE 05:55:45 10° ESE visible
